Date String (YYYY-MM-DD hh:mm:ss) UTC,Instrument flags,absolute air pressure of the measurement (hPa),sample flow rate (lpm),inlet stack bypass flow (lpm),air temperature of the measurement (°C),ambient temperature measured by the external sensor (°C),aerosol sample conditioner tube jacket temperature (°C),OPC LED temperature (°C),internal box temperature (°C),relative humidity of the measurement (%),span deviation,mass concentration of particles derived from Lorenz-Mie calculation of OPC scattering (μg/m³),mass concentration of particles derived from Lorenz-Mie calculation of OPC scattering (μg/m³),mass concentration of particles derived from Lorenz-Mie calculation of OPC scattering (μg/m³)
DateTimeUTC,F1_M11,P_M11,Q1_M11,Q2_M11,T1_M11,T2_M11,T3_M11,T4_M11,T5_M11,U1_M11,ZSPAN_M11,X0_M11,X2_M11,X1_M11
2023-05-31 23:00:00,SystemResetWarning,0825.5,5.00,000.00,029.0,027.5,000.0,037.4,030.7,24.8,0000.0,0007.61,0003.14,0002.08
2023-05-31 23:01:00,SystemResetWarning,0825.4,5.00,000.00,029.0,027.6,000.0,037.4,030.7,24.2,0000.0,0007.53,0003.11,0002.06
2023-05-31 23:02:00,SystemResetWarning,0825.4,5.00,000.00,029.0,027.6,000.0,037.4,030.7,23.0,0000.0,0007.24,0003.06,0002.05
2023-05-31 23:03:00,SystemResetWarning,0825.4,4.99,000.00,029.1,027.6,000.0,037.4,030.7,23.3,0000.0,0006.16,0002.97,0002.04
2023-05-31 23:04:00,SystemResetWarning,0825.3,5.00,000.00,029.1,027.6,000.0,037.4,030.7,23.0,0000.0,0005.83,0002.96,0002.03
2023-05-31 23:05:00,SystemResetWarning,0825.3,5.01,000.00,029.1,027.7,000.0,037.4,030.7,23.2,0000.0,0006.33,0002.94,0002.04
2023-05-31 23:06:00,SystemResetWarning,0825.3,5.01,000.00,029.1,027.7,000.0,037.4,030.7,23.6,0000.0,0006.34,0002.91,0002.03
2023-05-31 23:07:00,SystemResetWarning,0825.2,5.00,000.00,029.1,027.7,000.0,037.4,030.7,24.3,0000.0,0006.07,0002.91,0002.03
2023-05-31 23:08:00,SystemResetWarning,0825.2,5.00,000.00,029.1,027.7,000.0,037.4,030.8,24.4,0000.0,0006.38,0002.83,0002.03
2023-05-31 23:09:00,SystemResetWarning,0825.2,4.99,000.00,029.1,027.8,000.0,037.5,030.8,24.5,0000.0,0006.05,0002.79,0002.04
2023-05-31 23:10:00,SystemResetWarning,0825.2,4.99,000.00,029.1,027.8,000.0,037.5,030.8,24.1,0000.0,0006.01,0002.78,0002.05
2023-05-31 23:11:00,SystemResetWarning,0825.1,5.00,000.00,029.1,027.8,000.0,037.5,030.8,24.7,0000.0,0006.64,0002.78,0002.05
2023-05-31 23:12:00,SystemResetWarning,0825.1,5.01,000.00,029.2,027.8,000.0,037.5,030.8,24.4,0000.0,0006.68,0002.77,0002.04
2023-05-31 23:13:00,SystemResetWarning,0825.1,5.01,000.00,029.2,027.8,000.0,037.5,030.8,24.2,0000.0,0006.65,0002.78,0002.05
2023-05-31 23:14:00,SystemResetWarning,0825.1,5.00,000.00,029.2,027.9,000.0,037.5,030.9,22.7,0000.0,0006.68,0002.77,0002.04
2023-05-31 23:15:00,SystemResetWarning,0825.1,5.01,000.00,029.2,027.9,000.0,037.5,030.9,22.6,0000.0,0006.67,0002.75,0002.04
2023-05-31 23:16:00,SystemResetWarning,0825.1,4.98,000.00,029.2,027.9,000.0,037.5,030.9,22.1,0000.0,0006.31,0002.76,0002.02
2023-05-31 23:17:00,SystemResetWarning,0825.1,5.00,000.00,029.2,027.9,000.0,037.5,030.9,21.9,0000.0,0006.22,0002.77,0002.02
2023-05-31 23:18:00,SystemResetWarning,0825.1,5.00,000.00,029.3,027.9,000.0,037.6,030.9,22.7,0000.0,0005.93,0002.76,0002.02
2023-05-31 23:19:00,SystemResetWarning,0825.1,5.00,000.00,029.3,027.9,000.0,037.6,030.9,22.4,0000.0,0005.31,0002.81,0002.02
2023-05-31 23:20:00,SystemResetWarning,0825.1,5.00,000.00,029.3,028.0,000.0,037.6,030.9,22.4,0000.0,0005.44,0002.87,0002.02
2023-05-31 23:21:00,SystemResetWarning,0825.1,5.00,000.00,029.3,028.0,000.0,037.6,030.9,21.9,0000.0,0005.87,0002.90,0002.01
2023-05-31 23:22:00,SystemResetWarning,0825.1,5.00,000.00,029.3,028.0,000.0,037.6,030.9,22.0,0000.0,0005.48,0002.88,0002.02
2023-05-31 23:23:00,SystemResetWarning,0825.1,4.99,000.00,029.3,028.0,000.0,037.6,030.9,22.4,0000.0,0005.46,0002.96,0002.06
2023-05-31 23:24:00,SystemResetWarning,0825.1,4.99,000.00,029.3,028.0,000.0,037.6,031.0,22.4,0000.0,0006.16,0003.05,0002.07
2023-05-31 23:25:00,SystemResetWarning,0825.1,5.00,000.00,029.3,028.0,000.0,037.6,031.0,22.3,0000.0,0007.18,0003.12,0002.09
2023-05-31 23:26:00,SystemResetWarning,0825.1,5.00,000.00,029.3,028.0,000.0,037.7,031.0,21.8,0000.0,0007.54,0003.15,0002.09
2023-05-31 23:27:00,SystemResetWarning,0825.1,5.00,000.00,029.3,028.0,000.0,037.7,031.0,21.2,0000.0,0007.73,0003.20,0002.12
2023-05-31 23:28:00,SystemResetWarning,0825.1,5.01,000.00,029.3,028.0,000.0,037.7,031.0,21.1,0000.0,0007.78,0003.24,0002.13
2023-05-31 23:29:00,SystemResetWarning,0825.1,5.01,000.00,029.3,028.0,000.0,037.7,031.0,21.1,0000.0,0007.81,0003.24,0002.13
2023-05-31 23:30:00,SystemResetWarning,0825.1,5.00,000.00,029.3,028.0,000.0,037.7,031.0,21.1,0000.0,0007.88,0003.26,0002.11
2023-05-31 23:31:00,SystemResetWarning,0825.1,5.00,000.00,029.3,028.0,000.0,037.7,031.0,20.8,0000.0,0007.80,0003.21,0002.10
2023-05-31 23:32:00,SystemResetWarning,0825.1,5.00,000.00,029.4,028.0,000.0,037.7,031.0,20.9,0000.0,0007.67,0003.22,0002.09
2023-05-31 23:33:00,SystemResetWarning,0825.0,5.00,000.00,029.4,028.0,000.0,037.7,031.0,20.7,0000.0,0007.61,0003.25,0002.08
2023-05-31 23:34:00,SystemResetWarning,0825.1,5.00,000.00,029.4,028.0,000.0,037.7,031.0,20.6,0000.0,0007.54,0003.21,0002.05
2023-05-31 23:35:00,SystemResetWarning,0825.1,4.99,000.00,029.4,028.0,000.0,037.7,031.0,20.6,0000.0,0007.42,0003.18,0002.02
2023-05-31 23:36:00,SystemResetWarning,0825.1,5.01,000.00,029.4,028.0,000.0,037.7,031.0,20.8,0000.0,0006.93,0003.15,0001.99
2023-05-31 23:37:00,SystemResetWarning,0825.1,5.01,000.00,029.4,028.0,000.0,037.8,031.0,21.0,0000.0,0006.48,0003.13,0001.98
2023-05-31 23:38:00,SystemResetWarning,0825.1,4.99,000.00,029.4,028.0,000.0,037.8,031.0,21.2,0000.0,0006.41,0003.09,0001.96
2023-05-31 23:39:00,SystemResetWarning,0825.1,4.99,000.00,029.4,028.0,000.0,037.8,031.1,20.3,0000.0,0007.41,0003.05,0001.95
2023-05-31 23:40:00,SystemResetWarning,0825.1,4.99,000.00,029.4,028.0,000.0,037.8,031.1,20.4,0000.0,0007.77,0003.06,0001.95
2023-05-31 23:41:00,SystemResetWarning,0825.1,5.00,000.00,029.4,028.0,000.0,037.8,031.1,20.8,0000.0,0007.72,0003.02,0001.94
2023-05-31 23:42:00,SystemResetWarning,0825.1,5.01,000.00,029.4,028.0,000.0,037.8,031.1,20.6,0000.0,0007.78,0003.08,0001.95
2023-05-31 23:43:00,SystemResetWarning,0825.1,5.00,000.00,029.4,028.0,000.0,037.8,031.1,20.9,0000.0,0007.71,0003.06,0001.94
2023-05-31 23:44:00,SystemResetWarning,0825.1,4.99,000.00,029.4,027.9,000.0,037.8,031.1,21.1,0000.0,0007.96,0003.03,0001.93
2023-05-31 23:45:00,SystemResetWarning,0825.1,4.99,000.00,029.4,026.4,000.0,037.7,030.9,21.0,0000.0,0008.55,0003.05,0001.92
2023-05-31 23:46:00,SystemResetWarning,0825.1,5.02,000.00,029.4,025.3,000.0,037.6,030.7,20.5,0000.0,0008.46,0003.07,0001.93
2023-05-31 23:47:00,SystemResetWarning,0825.1,4.99,000.00,029.3,025.3,000.0,037.6,030.6,21.0,0000.0,0008.19,0003.05,0001.93
2023-05-31 23:48:00,SystemResetWarning,0825.1,4.99,000.00,029.2,025.5,000.0,037.6,030.6,21.0,0000.0,0008.20,0003.06,0001.93
2023-05-31 23:49:00,SystemResetWarning,0825.1,5.00,000.00,029.2,025.9,000.0,037.6,030.6,21.0,0000.0,0008.06,0003.03,0001.95
2023-05-31 23:50:00,SystemResetWarning,0825.1,5.01,000.00,029.2,026.2,000.0,037.6,030.6,20.6,0000.0,0007.26,0002.98,0001.94
2023-05-31 23:51:00,SystemResetWarning,0825.2,5.00,000.00,029.1,026.5,000.0,037.6,030.7,20.5,0000.0,0006.66,0002.95,0001.92
2023-05-31 23:52:00,SystemResetWarning,0825.2,4.99,000.00,029.1,026.7,000.0,037.6,030.7,20.8,0000.0,0006.56,0002.93,0001.94
2023-05-31 23:53:00,SystemResetWarning,0825.2,5.00,000.00,029.1,026.9,000.0,037.5,030.7,20.6,0000.0,0006.54,0002.91,0001.94
2023-05-31 23:54:00,SystemResetWarning,0825.2,5.00,000.00,029.1,027.1,000.0,037.5,030.7,21.0,0000.0,0006.46,0002.89,0001.94
2023-05-31 23:55:00,SystemResetWarning,0825.2,5.00,000.00,029.1,027.2,000.0,037.5,030.7,21.0,0000.0,0006.24,0002.85,0001.94
2023-05-31 23:56:00,SystemResetWarning,0825.1,5.00,000.00,029.2,027.4,000.0,037.5,030.7,21.0,0000.0,0004.92,0002.86,0001.96
2023-05-31 23:57:00,SystemResetWarning,0825.1,5.00,000.00,029.2,027.4,000.0,037.5,030.8,20.8,0000.0,0004.67,0002.85,0001.96
2023-05-31 23:58:00,SystemResetWarning,0825.1,5.01,000.00,029.2,027.5,000.0,037.5,030.8,20.9,0000.0,0004.68,0002.83,0001.96
2023-05-31 23:59:00,SystemResetWarning,0825.1,5.00,000.00,029.2,027.6,000.0,037.5,030.8,21.0,0000.0,0004.85,0002.86,0001.96
